WEN3108 CYLW-CYEG

Flight info

Callsign WEN3108
Flight time 1h 7m
Altitude 23000
Route ENDBY3 ENDBY DCT ROMRA Q949 ELLKS ELLKS3
Aircraft DH8D/M-SDE2E3FGRY/H

Departure

Time 2026-04-28 18:26
Airport Kelowna International Airport (CYLW)

Arrival

Time 2026-04-28 19:34
Airport Edmonton International Airport (CYEG)
Time Latitude Longitude Altitude Speed Heading
2026-04-28 18:02 49.95098 -119.38020 1470 ft 0 kts 292°
2026-04-28 18:20 49.95097 -119.38016 1446 ft 2 kts 292°
2026-04-28 18:20 49.95091 -119.37994 1446 ft 2 kts 292°
2026-04-28 18:20 49.95085 -119.37973 1446 ft 1 kts 292°
2026-04-28 18:20 49.95083 -119.37959 1448 ft 2 kts 279°
2026-04-28 18:21 49.95084 -119.37937 1451 ft 2 kts 244°
2026-04-28 18:21 49.95094 -119.37921 1454 ft 2 kts 210°
2026-04-28 18:21 49.95107 -119.37915 1457 ft 1 kts 178°
2026-04-28 18:21 49.95111 -119.37915 1458 ft 0 kts 175°
2026-04-28 18:23 49.95060 -119.37907 1458 ft 13 kts 175°
2026-04-28 18:23 49.95055 -119.37906 1458 ft 13 kts 174°
2026-04-28 18:23 49.95039 -119.37904 1458 ft 13 kts 175°
2026-04-28 18:24 49.94960 -119.37877 1458 ft 4 kts 121°
2026-04-28 18:24 49.94953 -119.37850 1458 ft 3 kts 127°
2026-04-28 18:24 49.94865 -119.37819 1459 ft 10 kts 175°
2026-04-28 18:24 49.94831 -119.37813 1459 ft 3 kts 171°
2026-04-28 18:25 49.94808 -119.37794 1459 ft 5 kts 145°
2026-04-28 18:25 49.94753 -119.37703 1459 ft 12 kts 124°
2026-04-28 18:25 49.94768 -119.37666 1459 ft 4 kts 355°
2026-04-28 18:26 49.95654 -119.37790 1457 ft 136 kts 355°
2026-04-28 18:26 49.96689 -119.37898 1746 ft 150 kts 357°
2026-04-28 18:26 49.97700 -119.38017 2367 ft 146 kts 356°
2026-04-28 18:26 49.98701 -119.38174 2878 ft 151 kts 355°
2026-04-28 18:27 49.99813 -119.38368 3185 ft 169 kts 354°
2026-04-28 18:27 50.01010 -119.38594 3596 ft 177 kts 352°
2026-04-28 18:27 50.02214 -119.39043 3997 ft 186 kts 343°
2026-04-28 18:27 50.03475 -119.39697 4405 ft 196 kts 342°
2026-04-28 18:28 50.04796 -119.40405 4816 ft 206 kts 341°
2026-04-28 18:28 50.06182 -119.41157 5222 ft 214 kts 341°
2026-04-28 18:28 50.07602 -119.41932 5622 ft 222 kts 341°
2026-04-28 18:28 50.09076 -119.42738 6025 ft 230 kts 341°
2026-04-28 18:29 50.10607 -119.43581 6431 ft 237 kts 340°
2026-04-28 18:29 50.12168 -119.44441 6808 ft 244 kts 340°
2026-04-28 18:29 50.13763 -119.45320 7314 ft 244 kts 340°
2026-04-28 18:29 50.15385 -119.46070 7771 ft 246 kts 353°
2026-04-28 18:30 50.17041 -119.45512 8138 ft 250 kts 33°
2026-04-28 18:30 50.17878 -119.44270 8401 ft 252 kts 52°
2026-04-28 18:30 50.19319 -119.41388 9013 ft 254 kts 50°
2026-04-28 18:30 50.20506 -119.39339 9478 ft 256 kts 46°
2026-04-28 18:31 50.21751 -119.37382 9919 ft 259 kts 44°
2026-04-28 18:31 50.23076 -119.35445 10393 ft 261 kts 42°
2026-04-28 18:31 50.24440 -119.33558 10876 ft 263 kts 40°
2026-04-28 18:31 50.25866 -119.31813 11332 ft 264 kts 28°
2026-04-28 18:32 50.27611 -119.31020 11787 ft 263 kts
2026-04-28 18:32 50.29431 -119.30656 12297 ft 264 kts
2026-04-28 18:32 50.31230 -119.30318 12805 ft 265 kts
2026-04-28 18:32 50.33073 -119.29982 13313 ft 266 kts
2026-04-28 18:33 50.34888 -119.29663 13796 ft 267 kts
2026-04-28 18:33 50.36742 -119.29344 14253 ft 267 kts
2026-04-28 18:33 50.38592 -119.29028 14693 ft 268 kts
2026-04-28 18:33 50.40441 -119.28715 15120 ft 269 kts
2026-04-28 18:34 50.42295 -119.28404 15535 ft 269 kts
2026-04-28 18:34 50.44116 -119.27837 15903 ft 273 kts 21°
2026-04-28 18:34 50.45613 -119.25971 16212 ft 279 kts 46°
2026-04-28 18:34 50.46886 -119.23701 16576 ft 280 kts 45°
2026-04-28 18:35 50.48217 -119.21478 16943 ft 280 kts 43°
2026-04-28 18:35 50.49585 -119.19311 17294 ft 281 kts 42°
2026-04-28 18:35 50.50987 -119.17181 17631 ft 281 kts 41°
2026-04-28 18:35 50.52419 -119.15070 17961 ft 282 kts 40°
2026-04-28 18:36 50.53857 -119.12998 18282 ft 283 kts 39°
2026-04-28 18:36 50.55322 -119.10922 18587 ft 284 kts 39°
2026-04-28 18:36 50.56803 -119.08847 18884 ft 285 kts 39°
2026-04-28 18:36 50.58271 -119.06806 19167 ft 286 kts 38°
2026-04-28 18:37 50.59769 -119.04739 19448 ft 287 kts 38°
2026-04-28 18:37 50.61273 -119.02670 19710 ft 288 kts 38°
2026-04-28 18:37 50.62786 -119.00594 19964 ft 289 kts 38°
2026-04-28 18:37 50.64285 -118.98545 20209 ft 289 kts 38°
2026-04-28 18:38 50.65810 -118.96461 20422 ft 290 kts 38°
2026-04-28 18:38 50.67247 -118.94235 20610 ft 295 kts 51°
2026-04-28 18:38 50.67999 -118.91191 20726 ft 305 kts 76°
2026-04-28 18:38 50.68297 -118.87900 20907 ft 306 kts 79°
2026-04-28 18:39 50.68572 -118.84586 21092 ft 307 kts 79°
2026-04-28 18:39 50.68848 -118.81229 21269 ft 308 kts 79°
2026-04-28 18:39 50.69127 -118.77866 21437 ft 309 kts 79°
2026-04-28 18:39 50.69404 -118.74552 21595 ft 309 kts 78°
2026-04-28 18:40 50.69685 -118.71191 21747 ft 310 kts 78°
2026-04-28 18:40 50.69969 -118.67812 21930 ft 311 kts 78°
2026-04-28 18:40 50.70251 -118.64449 22109 ft 312 kts 78°
2026-04-28 18:40 50.70536 -118.61040 22280 ft 313 kts 78°
2026-04-28 18:41 50.70949 -118.57726 22410 ft 310 kts 65°
2026-04-28 18:41 50.72160 -118.55030 22505 ft 297 kts 35°
2026-04-28 18:41 50.73893 -118.53367 22611 ft 294 kts 24°
2026-04-28 18:41 50.75715 -118.51936 22722 ft 294 kts 22°
2026-04-28 18:42 50.77587 -118.50542 22786 ft 298 kts 21°
2026-04-28 18:42 50.79484 -118.49181 22784 ft 304 kts 21°
2026-04-28 18:42 50.81416 -118.47832 22769 ft 309 kts 20°
2026-04-28 18:42 50.83416 -118.46461 22758 ft 313 kts 20°
2026-04-28 18:43 50.85405 -118.45114 22760 ft 315 kts 20°
2026-04-28 18:43 50.87416 -118.43765 22769 ft 316 kts 20°
2026-04-28 18:43 50.89437 -118.42419 22797 ft 316 kts 19°
2026-04-28 18:43 50.91473 -118.41069 22841 ft 315 kts 19°
2026-04-28 18:44 50.93495 -118.39732 22894 ft 314 kts 19°
2026-04-28 18:44 50.97506 -118.37087 23025 ft 313 kts 19°
2026-04-28 18:44 50.99511 -118.35768 23080 ft 313 kts 19°
2026-04-28 18:45 51.01497 -118.34461 23131 ft 314 kts 20°
2026-04-28 18:45 51.03537 -118.33119 23142 ft 317 kts 20°
2026-04-28 18:45 51.05584 -118.31772 23139 ft 320 kts 20°
2026-04-28 18:45 51.07631 -118.30424 23132 ft 323 kts 20°
2026-04-28 18:46 51.09706 -118.29057 23126 ft 325 kts 20°
2026-04-28 18:46 51.11816 -118.27664 23103 ft 327 kts 20°
2026-04-28 18:46 51.13927 -118.26271 23097 ft 327 kts 20°
2026-04-28 18:46 51.16036 -118.24878 23096 ft 328 kts 20°
2026-04-28 18:47 51.18119 -118.23500 23091 ft 328 kts 20°
2026-04-28 18:47 51.20217 -118.22111 23086 ft 328 kts 20°
2026-04-28 18:47 51.22332 -118.20709 23095 ft 327 kts 20°
2026-04-28 18:47 51.24402 -118.19337 23126 ft 327 kts 20°
2026-04-28 18:48 51.26512 -118.17937 23117 ft 328 kts 20°
2026-04-28 18:48 51.28615 -118.16540 23099 ft 330 kts 20°
2026-04-28 18:48 51.30729 -118.15134 23058 ft 332 kts 20°
2026-04-28 18:48 51.32873 -118.13708 23003 ft 335 kts 20°
2026-04-28 18:49 51.35040 -118.12264 22939 ft 337 kts 20°
2026-04-28 18:49 51.36450 -118.11324 22892 ft 337 kts 20°
2026-04-28 18:49 51.39334 -118.09400 22778 ft 339 kts 20°
2026-04-28 18:49 51.41510 -118.07946 22686 ft 337 kts 20°
2026-04-28 18:50 51.43672 -118.06501 22596 ft 335 kts 20°
2026-04-28 18:50 51.45798 -118.05078 22500 ft 334 kts 20°
2026-04-28 18:50 51.47946 -118.03639 22409 ft 332 kts 20°
2026-04-28 18:50 51.50047 -118.02230 22307 ft 330 kts 20°
2026-04-28 18:51 51.52156 -118.00813 22264 ft 326 kts 20°
2026-04-28 18:51 51.54236 -117.99415 22257 ft 324 kts 20°
2026-04-28 18:51 51.56290 -117.98032 22263 ft 322 kts 20°
2026-04-28 18:51 51.58374 -117.96628 22273 ft 321 kts 20°
2026-04-28 18:52 51.60413 -117.95253 22270 ft 319 kts 20°
2026-04-28 18:52 51.62448 -117.93879 22322 ft 317 kts 20°
2026-04-28 18:52 51.64476 -117.92508 22384 ft 315 kts 20°
2026-04-28 18:52 51.66478 -117.91153 22447 ft 314 kts 20°
2026-04-28 18:53 51.68496 -117.89787 22510 ft 313 kts 20°
2026-04-28 18:53 51.70502 -117.88428 22574 ft 313 kts 20°
2026-04-28 18:53 51.72483 -117.87084 22635 ft 312 kts 20°
2026-04-28 18:53 51.74506 -117.85711 22695 ft 312 kts 20°
2026-04-28 18:54 51.76495 -117.84359 22763 ft 313 kts 20°
2026-04-28 18:54 51.78522 -117.82980 22778 ft 316 kts 20°
2026-04-28 18:54 51.80544 -117.81604 22770 ft 319 kts 20°
2026-04-28 18:54 51.82585 -117.80214 22753 ft 322 kts 20°
2026-04-28 18:55 51.84659 -117.78799 22731 ft 325 kts 20°
2026-04-28 18:55 51.86055 -117.77845 22714 ft 326 kts 20°
2026-04-28 18:55 51.88840 -117.75941 22672 ft 329 kts 20°
2026-04-28 18:55 51.90942 -117.74503 22636 ft 331 kts 20°
2026-04-28 18:56 51.93074 -117.73041 22608 ft 332 kts 20°
2026-04-28 18:56 51.95184 -117.71594 22557 ft 329 kts 20°
2026-04-28 18:56 51.97278 -117.70155 22624 ft 323 kts 20°
2026-04-28 18:56 51.99308 -117.68758 22731 ft 317 kts 20°
2026-04-28 18:57 52.01331 -117.67367 22843 ft 312 kts 20°
2026-04-28 18:57 52.03288 -117.66019 23036 ft 309 kts 20°
2026-04-28 18:57 52.05267 -117.64614 23123 ft 312 kts 24°
2026-04-28 18:57 52.06957 -117.62359 23160 ft 322 kts 47°
2026-04-28 18:58 52.08284 -117.59392 23168 ft 328 kts 51°
2026-04-28 18:58 52.09581 -117.56368 23180 ft 331 kts 51°
2026-04-28 18:58 52.10908 -117.53254 23187 ft 335 kts 51°
2026-04-28 18:58 52.12222 -117.50166 23196 ft 337 kts 51°
2026-04-28 18:59 52.13564 -117.47013 23204 ft 340 kts 51°
2026-04-28 18:59 52.14901 -117.43870 23159 ft 343 kts 51°
2026-04-28 18:59 52.16269 -117.40653 23099 ft 346 kts 51°
2026-04-28 18:59 52.17631 -117.37446 23035 ft 348 kts 51°
2026-04-28 19:00 52.19017 -117.34178 22964 ft 350 kts 52°
2026-04-28 19:00 52.20392 -117.30933 22883 ft 352 kts 52°
2026-04-28 19:00 52.21791 -117.27626 22803 ft 353 kts 52°
2026-04-28 19:00 52.23166 -117.24375 22715 ft 353 kts 52°
2026-04-28 19:01 52.24563 -117.21065 22672 ft 351 kts 52°
2026-04-28 19:01 52.25926 -117.17832 22677 ft 347 kts 52°
2026-04-28 19:01 52.27294 -117.14584 22685 ft 345 kts 52°
2026-04-28 19:01 52.28648 -117.11366 22685 ft 343 kts 52°
2026-04-28 19:02 52.29984 -117.08188 22672 ft 343 kts 52°
2026-04-28 19:02 52.31340 -117.04959 22653 ft 343 kts 52°
2026-04-28 19:02 52.32680 -117.01765 22610 ft 345 kts 52°
2026-04-28 19:02 52.34039 -116.98521 22535 ft 346 kts 52°
2026-04-28 19:03 52.35386 -116.95300 22522 ft 345 kts 52°
2026-04-28 19:03 52.36740 -116.92058 22530 ft 342 kts 52°
2026-04-28 19:03 52.38066 -116.88877 22547 ft 340 kts 52°
2026-04-28 19:03 52.39394 -116.85691 22569 ft 338 kts 52°
2026-04-28 19:04 52.40718 -116.82510 22592 ft 337 kts 52°
2026-04-28 19:04 52.42017 -116.79385 22629 ft 335 kts 52°
2026-04-28 19:04 52.43328 -116.76226 22667 ft 334 kts 52°
2026-04-28 19:04 52.44627 -116.73094 22703 ft 333 kts 52°
2026-04-28 19:05 52.45928 -116.69950 22760 ft 332 kts 52°
2026-04-28 19:05 52.47209 -116.66852 22823 ft 330 kts 52°
2026-04-28 19:05 52.48494 -116.63742 22884 ft 329 kts 51°
2026-04-28 19:05 52.49775 -116.60640 22943 ft 328 kts 51°
2026-04-28 19:06 52.51050 -116.57546 22998 ft 327 kts 51°
2026-04-28 19:06 52.51895 -116.55492 23052 ft 326 kts 51°
2026-04-28 19:06 52.53584 -116.51386 23154 ft 326 kts 51°
2026-04-28 19:06 52.54842 -116.48325 23164 ft 328 kts 51°
2026-04-28 19:07 52.56130 -116.45187 23154 ft 331 kts 51°
2026-04-28 19:07 52.57420 -116.42039 23136 ft 333 kts 51°
2026-04-28 19:07 52.58699 -116.38913 23121 ft 335 kts 51°
2026-04-28 19:07 52.60004 -116.35719 23108 ft 336 kts 51°
2026-04-28 19:08 52.61312 -116.32511 23097 ft 337 kts 52°
2026-04-28 19:08 52.62610 -116.29326 23082 ft 338 kts 52°
2026-04-28 19:08 52.63921 -116.26105 23072 ft 338 kts 52°
2026-04-28 19:08 52.65229 -116.22885 23065 ft 338 kts 52°
2026-04-28 19:09 52.66524 -116.19695 23061 ft 338 kts 52°
2026-04-28 19:09 52.67847 -116.16471 23060 ft 338 kts 52°
2026-04-28 19:09 52.69170 -116.13274 23058 ft 338 kts 52°
2026-04-28 19:09 52.70481 -116.10104 23055 ft 338 kts 52°
2026-04-28 19:10 52.71795 -116.06923 23053 ft 338 kts 52°
2026-04-28 19:10 52.73118 -116.03713 23051 ft 338 kts 52°
2026-04-28 19:10 52.74439 -116.00504 23049 ft 338 kts 52°
2026-04-28 19:10 52.75744 -115.97329 23048 ft 338 kts 52°
2026-04-28 19:11 52.77058 -115.94125 23046 ft 338 kts 52°
2026-04-28 19:11 52.78374 -115.90915 23053 ft 338 kts 52°
2026-04-28 19:11 52.79675 -115.87736 23056 ft 338 kts 52°
2026-04-28 19:11 52.80993 -115.84512 23057 ft 339 kts 52°
2026-04-28 19:12 52.82317 -115.81269 23059 ft 339 kts 52°
2026-04-28 19:12 52.83632 -115.78042 23051 ft 339 kts 52°
2026-04-28 19:12 52.84935 -115.74841 23048 ft 339 kts 52°
2026-04-28 19:12 52.86255 -115.71594 23047 ft 339 kts 52°
2026-04-28 19:13 52.87559 -115.68382 23046 ft 339 kts 52°
2026-04-28 19:13 52.88878 -115.65128 23047 ft 339 kts 52°
2026-04-28 19:13 52.90191 -115.61887 23048 ft 339 kts 52°
2026-04-28 19:13 52.91486 -115.58685 23048 ft 339 kts 52°
2026-04-28 19:14 52.92799 -115.55437 23049 ft 339 kts 52°
2026-04-28 19:14 52.94115 -115.52174 23050 ft 339 kts 52°
2026-04-28 19:14 52.95419 -115.48937 23050 ft 339 kts 52°
2026-04-28 19:14 52.96719 -115.45707 23050 ft 339 kts 52°
2026-04-28 19:15 52.98032 -115.42442 23050 ft 340 kts 52°
2026-04-28 19:15 52.99330 -115.39206 23051 ft 340 kts 52°
2026-04-28 19:15 53.00636 -115.35948 23054 ft 339 kts 52°
2026-04-28 19:15 53.01512 -115.33759 23055 ft 339 kts 53°
2026-04-28 19:16 53.03244 -115.29431 23061 ft 339 kts 53°
2026-04-28 19:16 53.04549 -115.26163 23065 ft 339 kts 53°
2026-04-28 19:16 53.05850 -115.22900 23069 ft 339 kts 53°
2026-04-28 19:16 53.07139 -115.19665 23072 ft 339 kts 53°
2026-04-28 19:17 53.08432 -115.16414 23076 ft 339 kts 53°
2026-04-28 19:17 53.09727 -115.13153 23084 ft 339 kts 53°
2026-04-28 19:17 53.11031 -115.09869 22929 ft 345 kts 53°
2026-04-28 19:17 53.12374 -115.06481 22614 ft 351 kts 53°
2026-04-28 19:18 53.13693 -115.03153 22246 ft 350 kts 53°
2026-04-28 19:18 53.15030 -114.99771 21832 ft 349 kts 53°
2026-04-28 19:18 53.16369 -114.96382 21432 ft 348 kts 53°
2026-04-28 19:18 53.17682 -114.93053 21044 ft 347 kts 53°
2026-04-28 19:19 53.18997 -114.89713 20657 ft 345 kts 53°
2026-04-28 19:19 53.20312 -114.86368 20242 ft 343 kts 53°
2026-04-28 19:19 53.21605 -114.83075 19854 ft 341 kts 53°
2026-04-28 19:19 53.22889 -114.79800 19475 ft 339 kts 53°
2026-04-28 19:20 53.24174 -114.76517 19097 ft 337 kts 53°
2026-04-28 19:20 53.25440 -114.73280 18736 ft 335 kts 53°
2026-04-28 19:20 53.26697 -114.69971 18329 ft 336 kts 57°
2026-04-28 19:20 53.27362 -114.66287 17978 ft 340 kts 81°
2026-04-28 19:21 53.27493 -114.62341 17592 ft 341 kts 84°
2026-04-28 19:21 53.27584 -114.58402 17243 ft 341 kts 85°
2026-04-28 19:21 53.27670 -114.54436 16873 ft 341 kts 85°
2026-04-28 19:21 53.27755 -114.50507 16499 ft 341 kts 85°
2026-04-28 19:22 53.27841 -114.46529 16119 ft 341 kts 85°
2026-04-28 19:22 53.27897 -114.43938 15847 ft 341 kts 85°
2026-04-28 19:22 53.28011 -114.38705 15332 ft 339 kts 85°
2026-04-28 19:22 53.28095 -114.34779 14954 ft 338 kts 85°
2026-04-28 19:23 53.28179 -114.30879 14578 ft 336 kts 85°
2026-04-28 19:23 53.28260 -114.27000 14206 ft 335 kts 85°
2026-04-28 19:23 53.28343 -114.23110 13830 ft 333 kts 85°
2026-04-28 19:23 53.28424 -114.19259 13458 ft 332 kts 85°
2026-04-28 19:24 53.28502 -114.15405 13087 ft 331 kts 85°
2026-04-28 19:24 53.28579 -114.11611 12694 ft 329 kts 85°
2026-04-28 19:24 53.28653 -114.07793 12320 ft 326 kts 85°
2026-04-28 19:24 53.28728 -114.04041 11955 ft 324 kts 85°
2026-04-28 19:25 53.28820 -114.00333 11599 ft 321 kts 84°
2026-04-28 19:25 53.28963 -113.96634 11283 ft 320 kts 83°
2026-04-28 19:25 53.29112 -113.92923 10937 ft 320 kts 83°
2026-04-28 19:25 53.29260 -113.89246 10585 ft 319 kts 84°
2026-04-28 19:26 53.29404 -113.85549 10230 ft 319 kts 84°
2026-04-28 19:26 53.29539 -113.81857 9836 ft 319 kts 85°
2026-04-28 19:26 53.29189 -113.78203 9423 ft 322 kts 111°
2026-04-28 19:26 53.27903 -113.75210 9117 ft 318 kts 132°
2026-04-28 19:27 53.26413 -113.72647 8749 ft 303 kts 134°
2026-04-28 19:27 53.24965 -113.70203 8402 ft 288 kts 134°
2026-04-28 19:27 53.23586 -113.67892 8086 ft 275 kts 134°
2026-04-28 19:27 53.22259 -113.65671 7784 ft 262 kts 134°
2026-04-28 19:28 53.21016 -113.63590 7502 ft 251 kts 134°
2026-04-28 19:28 53.19812 -113.61575 7230 ft 239 kts 134°
2026-04-28 19:28 53.18653 -113.59641 6971 ft 235 kts 134°
2026-04-28 19:28 53.17505 -113.57715 6658 ft 234 kts 134°
2026-04-28 19:29 53.16370 -113.55789 6367 ft 231 kts 132°
2026-04-28 19:29 53.15747 -113.54394 6173 ft 228 kts 118°
2026-04-28 19:29 53.15220 -113.51069 5812 ft 220 kts 89°
2026-04-28 19:29 53.15465 -113.48594 5550 ft 215 kts 69°
2026-04-28 19:30 53.16174 -113.46492 5316 ft 210 kts 51°
2026-04-28 19:30 53.17256 -113.44901 5080 ft 206 kts 31°
2026-04-28 19:30 53.18524 -113.44037 4834 ft 192 kts 12°
2026-04-28 19:30 53.19796 -113.43882 4605 ft 179 kts 355°
2026-04-28 19:31 53.20987 -113.44322 4394 ft 171 kts 339°
2026-04-28 19:31 53.22001 -113.45235 4184 ft 164 kts 323°
2026-04-28 19:31 53.22828 -113.46503 3977 ft 160 kts 315°
2026-04-28 19:31 53.23604 -113.47804 3770 ft 156 kts 316°
2026-04-28 19:32 53.24379 -113.49077 3568 ft 155 kts 316°
2026-04-28 19:32 53.25118 -113.50301 3402 ft 146 kts 316°
2026-04-28 19:32 53.25843 -113.51500 3190 ft 145 kts 317°
2026-04-28 19:32 53.26566 -113.52689 2991 ft 147 kts 317°
2026-04-28 19:33 53.27283 -113.53891 2819 ft 146 kts 317°
2026-04-28 19:33 53.27994 -113.55121 2639 ft 144 kts 315°
2026-04-28 19:33 53.28672 -113.56306 2429 ft 141 kts 317°
2026-04-28 19:33 53.29324 -113.57384 2361 ft 116 kts 315°
2026-04-28 19:34 53.29755 -113.58105 2350 ft 66 kts 314°
2026-04-28 19:34 53.30012 -113.58536 2341 ft 45 kts 315°
2026-04-28 19:34 53.30195 -113.58829 2332 ft 28 kts 329°
2026-04-28 19:34 53.30340 -113.58850 2332 ft 18 kts 359°
2026-04-28 19:35 53.30454 -113.58850 2329 ft 14 kts
2026-04-28 19:35 53.30545 -113.58837 2328 ft 11 kts 31°
2026-04-28 19:35 53.30615 -113.58793 2329 ft 11 kts 26°
2026-04-28 19:35 53.30673 -113.58732 2330 ft 8 kts 33°
2026-04-28 19:36 53.30689 -113.58715 2330 ft 0 kts 32°